Temp
-11 -11 -12 -12 -12 -12 -12 -13 -13 -14 -13 -13 -13 -13 -13 -13 -13 -12 -13 -13 -13 -13 -14 -14 -14 -14 -15 -15 -15 -16 -16 -16 -16 -17 -17 -17 -17 -17 -18 -19 -20 -20 -20
-12 -11 -12 -12 -12 -13 -13 -13 -13 -13 -14 -14 -13 -13 -13 -13 -13 -13 -13 -13 -13 -14 -14 -14 -15 -15 -15 -16 -16 -16 -16 -16 -16 -17 -17 -17 -17 -18 -19 -20 -20 -21 -21
-12 -12 -12 -12 -13 -14 -14 -14 -14 -14 -13 -14 -13 -13 -13 -14 -14 -14 -14 -14 -14 -14 -15 -15 -15 -16 -16 -16 -16 -16 -16 -16 -16 -17 -17 -17 -17 -19 -20 -20 -21 -21 -22
-12 -13 -14 -14 -14 -14 -14 -14 -14 -14 -14 -13 -14 -14 -14 -14 -14 -14 -14 -14 -14 -15 -15 -15 -15 -16 -16 -16 -16 -16 -16 -16 -17 -17 -17 -17 -19 -19 -20 -21 -22 -22 -22
-14 -14 -14 -14 -14 -14 -14 -14 -14 -14 -14 -14 -14 -15 -15 -14 -15 -15 -15 -15 -15 -15 -15 -15 -15 -15 -16 -16 -17 -17 -17 -17 -17 -17 -18 -19 -20 -20 -20 -21 -22 -23 -23
-14 -15 -15 -15 -15 -14 -14 -14 -14 -14 -14 -14 -14 -15 -15 -15 -15 -15 -15 -15 -16 -16 -16 -16 -16 -16 -16 -17 -17 -17 -17 -17 -17 -18 -19 -20 -21 -21 -21 -22 -23 -23 -23
-15 -15 -15 -15 -15 -15 -15 -15 -15 -15 -15 -15 -15 -15 -15 -15 -16 -16 -16 -16 -16 -16 -16 -17 -17 -17 -17 -17 -17 -17 -17 -18 -18 -20 -20 -20 -21 -21 -22 -22 -23 -24 -24
-16 -15 -15 -15 -16 -16 -16 -16 -16 -16 -16 -16 -16 -16 -16 -16 -16 -17 -17 -17 -17 -17 -17 -17 -17 -17 -17 -17 -17 -18 -18 -19 -19 -21 -21 -21 -22 -22 -23 -23 -24 -24 -24
-16 -16 -16 -16 -16 -16 -16 -17 -17 -17 -16 -16 -16 -16 -16 -17 -17 -17 -17 -17 -17 -17 -17 -17 -18 -18 -18 -18 -18 -18 -20 -20 -20 -21 -21 -22 -23 -23 -24 -24 -24 -24 -25
-17 -16 -16 -16 -16 -17 -17 -17 -17 -17 -17 -17 -17 -17 -17 -17 -17 -17 -17 -18 -18 -18 -18 -18 -18 -18 -18 -18 -18 -19 -20 -21 -21 -21 -22 -23 -23 -24 -24 -24 -25 -25 -26
-17 -17 -17 -17 -17 -17 -17 -17 -17 -18 -18 -17 -17 -17 -17 -17 -18 -18 -18 -18 -18 -18 -18 -19 -19 -19 -19 -19 -19 -20 -21 -21 -22 -22 -23 -23 -24 -24 -25 -25 -26 -27 -28
-19 -18 -18 -18 -18 -19 -19 -18 -18 -18 -18 -18 -18 -18 -17 -18 -18 -19 -19 -19 -19 -19 -19 -19 -19 -19 -19 -19 -21 -21 -22 -22 -22 -23 -24 -24 -25 -25 -26 -27 -28 -28 -29
-20 -20 -19 -19 -19 -19 -19 -19 -19 -19 -19 -19 -19 -19 -19 -19 -18 -19 -20 -19 -19 -19 -20 -20 -19 -20 -20 -21 -21 -22 -22 -23 -24 -24 -24 -25 -25 -26 -27 -28 -28 -29 -29
-20 -20 -20 -20 -20 -20 -20 -20 -20 -20 -20 -20 -19 -19 -19 -19 -19 -19 -19 -19 -20 -20 -20 -20 -20 -21 -21 -22 -23 -24 -24 -24 -25 -25 -25 -26 -27 -28 -28 -28 -29 -29 -30
-21 -21 -21 -21 -21 -21 -21 -20 -20 -20 -20 -20 -20 -20 -20 -20 -20 -20 -21 -21 -20 -20 -20 -21 -21 -22 -22 -23 -24 -25 -25 -25 -26 -27 -28 -28 -28 -28 -29 -29 -30 -30 -31
-22 -23 -23 -22 -22 -21 -21 -21 -21 -21 -21 -21 -21 -21 -21 -21 -21 -21 -21 -21 -21 -21 -21 -22 -23 -23 -24 -24 -25 -25 -27 -28 -29 -29 -29 -29 -29 -29 -30 -30 -31 -31 -31
-23 -23 -23 -23 -23 -23 -22 -22 -22 -22 -22 -22 -22 -22 -22 -22 -22 -23 -23 -22 -22 -23 -23 -23 -24 -24 -25 -26 -27 -28 -28 -29 -29 -29 -30 -30 -31 -31 -31 -31 -31 -32 -32
-23 -24 -23 -24 -24 -24 -23 -23 -22 -23 -23 -23 -23 -24 -24 -23 -23 -23 -24 -23 -23 -23 -24 -25 -26 -26 -27 -28 -28 -29 -29 -30 -30 -30 -31 -31 -31 -31 -31 -32 -32 -33 -34
-25 -24 -25 -25 -25 -25 -24 -24 -24 -25 -25 -25 -25 -25 -25 -25 -24 -24 -25 -25 -26 -26 -26 -27 -27 -28 -28 -28 -29 -30 -30 -31 -31 -32 -32 -32 -32 -32 -32 -33 -33 -34 -34
-25 -25 -26 -25 -25 -25 -25 -25 -25 -25 -25 -25 -26 -26 -26 -26 -26 -27 -27 -27 -27 -27 -28 -28 -29 -30 -30 -31 -31 -32 -32 -32 -32 -32 -32 -32 -32 -33 -33 -34 -34 -35 -35
-27 -26 -27 -27 -27 -27 -26 -26 -26 -26 -26 -27 -27 -27 -27 -27 -27 -27 -28 -28 -29 -30 -30 -30 -31 -32 -32 -32 -32 -32 -32 -32 -33 -33 -33 -33 -34 -34 -34 -34 -35 -35 -36
-28 -28 -27 -27 -27 -27 -27 -27 -27 -28 -28 -28 -28 -28 -28 -28 -29 -29 -30 -30 -31 -31 -32 -32 -32 -32 -32 -32 -32 -33 -33 -33 -33 -33 -34 -34 -34 -34 -35 -35 -36 -36 -37
-28 -28 -28 -28 -28 -28 -28 -28 -28 -28 -28 -28 -29 -29 -30 -30 -31 -31 -32 -32 -32 -32 -32 -33 -33 -33 -33 -33 -33 -34 -34 -34 -34 -34 -34 -34 -35 -35 -36 -36 -37 -37 -38
-29 -29 -29 -29 -29 -29 -29 -29 -29 -29 -30 -31 -31 -31 -31 -32 -32 -32 -32 -33 -33 -33 -33 -33 -33 -33 -34 -34 -34 -34 -34 -34 -34 -34 -34 -35 -36 -36 -36 -37 -38 -38 -38
-30 -30 -30 -30 -30 -30 -30 -30 -31 -31 -32 -32 -32 -33 -33 -33 -33 -33 -33 -33 -33 -33 -33 -33 -34 -34 -34 -34 -34 -34 -34 -34 -34 -35 -36 -36 -37 -38 -38 -39 -39 -39 -40
-31 -31 -31 -31 -31 -32 -32 -32 -32 -32 -33 -33 -33 -33 -33 -33 -33 -33 -34 -33 -34 -34 -34 -34 -34 -34 -34 -34 -34 -35 -35 -36 -36 -36 -37 -37 -38 -39 -39 -40 -40 -40 -41
Height
5750 5751 5751 5749 5747 5745 5743 5740 5738 5736 5734 5733 5730 5728 5726 5724 5721 5719 5716 5714 5711 5709 5707 5705 5703 5699 5696 5694 5691 5689 5686 5683 5678 5674 5670 5662 5658 5654 5648 5642 5638 5631 5624
5738 5737 5736 5736 5734 5731 5729 5727 5724 5721 5719 5717 5716 5714 5712 5710 5707 5705 5703 5701 5699 5696 5694 5692 5689 5686 5683 5680 5677 5674 5671 5667 5663 5659 5654 5649 5644 5638 5633 5629 5624 5617 5609
5724 5723 5723 5722 5721 5718 5715 5712 5708 5705 5704 5702 5701 5700 5698 5696 5694 5692 5689 5688 5685 5682 5680 5677 5675 5672 5669 5666 5662 5659 5656 5651 5647 5642 5637 5632 5626 5621 5616 5612 5606 5600 5594
5709 5708 5707 5706 5704 5703 5700 5698 5694 5692 5690 5689 5687 5686 5684 5682 5680 5678 5675 5673 5671 5669 5666 5664 5660 5657 5655 5651 5648 5644 5640 5636 5631 5627 5622 5615 5609 5604 5600 5595 5591 5583 5577
5693 5691 5691 5689 5687 5686 5685 5684 5681 5678 5676 5675 5674 5672 5670 5668 5666 5664 5661 5659 5656 5654 5651 5649 5646 5643 5639 5636 5633 5629 5624 5619 5615 5610 5606 5600 5594 5588 5584 5579 5574 5566 5560
5674 5674 5673 5672 5671 5670 5669 5669 5668 5665 5662 5661 5659 5657 5655 5653 5651 5647 5645 5643 5641 5639 5636 5633 5630 5626 5623 5620 5616 5612 5608 5602 5598 5595 5589 5583 5577 5571 5567 5562 5556 5549 5546
5659 5658 5657 5656 5655 5653 5652 5651 5650 5649 5648 5646 5644 5642 5640 5638 5635 5632 5631 5628 5626 5624 5621 5618 5615 5612 5608 5604 5599 5596 5591 5585 5580 5576 5572 5566 5559 5552 5548 5544 5538 5532 5527
5643 5642 5641 5640 5640 5639 5637 5635 5634 5633 5633 5631 5630 5627 5626 5623 5621 5617 5615 5611 5609 5607 5605 5602 5599 5595 5591 5587 5583 5579 5573 5568 5563 5560 5556 5549 5542 5536 5530 5526 5521 5515 5508
5627 5627 5626 5624 5624 5624 5623 5621 5620 5618 5618 5617 5615 5613 5611 5608 5606 5602 5599 5595 5594 5591 5589 5585 5581 5577 5574 5570 5567 5562 5557 5550 5545 5542 5538 5531 5525 5519 5513 5508 5502 5496 5490
5610 5609 5609 5608 5608 5607 5606 5605 5604 5602 5600 5599 5598 5596 5594 5591 5590 5587 5585 5580 5577 5574 5571 5568 5563 5560 5557 5553 5549 5543 5535 5530 5528 5524 5521 5514 5509 5503 5497 5490 5483 5477 5469
5594 5593 5591 5590 5590 5589 5588 5587 5585 5584 5582 5581 5579 5578 5576 5574 5572 5569 5567 5563 5560 5557 5554 5551 5546 5541 5537 5534 5527 5521 5519 5516 5513 5508 5503 5498 5492 5487 5480 5473 5466 5459 5450
5574 5574 5573 5572 5571 5571 5571 5570 5568 5567 5566 5564 5562 5559 5558 5555 5552 5551 5548 5545 5542 5538 5535 5531 5527 5522 5518 5514 5509 5505 5502 5498 5496 5491 5488 5483 5478 5471 5464 5458 5450 5440 5430
5556 5555 5554 5554 5554 5553 5552 5552 5551 5551 5548 5547 5545 5542 5540 5538 5535 5532 5531 5528 5525 5520 5517 5512 5508 5503 5499 5495 5491 5487 5485 5481 5479 5476 5472 5467 5462 5455 5448 5440 5432 5422 5413
5541 5539 5538 5537 5536 5535 5535 5535 5535 5533 5532 5530 5527 5525 5522 5519 5516 5513 5509 5507 5504 5502 5498 5494 5489 5485 5482 5478 5474 5471 5467 5464 5461 5458 5454 5448 5440 5433 5426 5421 5414 5406 5397
5522 5522 5521 5521 5521 5520 5519 5519 5517 5515 5514 5511 5508 5505 5502 5499 5497 5494 5491 5488 5485 5483 5479 5475 5471 5467 5465 5462 5458 5454 5451 5447 5442 5437 5431 5426 5420 5416 5411 5405 5397 5389 5378
5503 5503 5503 5503 5504 5502 5501 5500 5498 5497 5494 5491 5488 5487 5483 5479 5477 5476 5474 5470 5467 5464 5460 5456 5454 5451 5448 5446 5442 5438 5433 5428 5424 5419 5414 5410 5405 5399 5392 5385 5378 5369 5360
5487 5487 5488 5486 5486 5484 5481 5481 5478 5477 5475 5472 5469 5468 5465 5463 5461 5458 5455 5454 5451 5447 5443 5441 5437 5435 5431 5428 5424 5420 5416 5413 5409 5404 5399 5394 5388 5381 5373 5364 5357 5350 5341
5467 5467 5469 5467 5465 5465 5465 5463 5460 5458 5457 5454 5452 5451 5449 5446 5444 5441 5438 5435 5433 5431 5427 5424 5420 5418 5416 5411 5408 5405 5400 5396 5391 5386 5381 5375 5369 5361 5353 5345 5336 5329 5321
5445 5445 5447 5447 5446 5445 5445 5444 5442 5440 5440 5438 5437 5436 5434 5431 5428 5425 5422 5419 5416 5415 5412 5408 5404 5401 5398 5395 5391 5387 5383 5378 5373 5368 5362 5355 5348 5341 5333 5325 5316 5309 5301
5428 5428 5428 5428 5427 5426 5425 5424 5423 5423 5423 5421 5419 5417 5415 5414 5411 5409 5406 5404 5401 5398 5394 5391 5388 5385 5381 5378 5373 5369 5364 5359 5354 5347 5341 5334 5327 5319 5312 5305 5297 5288 5281
5411 5411 5412 5411 5410 5410 5408 5407 5406 5405 5404 5403 5402 5400 5398 5397 5395 5393 5391 5388 5384 5381 5377 5374 5371 5367 5363 5359 5355 5350 5344 5339 5333 5326 5319 5312 5304 5297 5289 5283 5275 5267 5262
5396 5396 5396 5396 5395 5394 5394 5392 5391 5390 5389 5388 5387 5385 5383 5380 5378 5375 5373 5370 5367 5364 5361 5358 5354 5349 5345 5339 5334 5328 5322 5317 5310 5302 5295 5287 5279 5272 5265 5259 5253 5248 5243
5382 5382 5382 5381 5381 5381 5381 5380 5379 5377 5376 5373 5371 5369 5367 5365 5362 5359 5357 5354 5351 5347 5344 5339 5335 5329 5323 5317 5311 5304 5298 5291 5285 5278 5270 5262 5254 5248 5242 5236 5231 5227 5223
5370 5370 5370 5370 5369 5368 5368 5366 5364 5362 5360 5358 5356 5355 5353 5350 5347 5344 5341 5337 5333 5328 5323 5317 5312 5306 5300 5292 5286 5278 5271 5265 5257 5250 5243 5236 5230 5224 5219 5214 5210 5207 5204
5359 5358 5358 5357 5356 5354 5352 5351 5349 5348 5346 5344 5342 5339 5337 5333 5330 5326 5322 5317 5313 5307 5301 5295 5288 5281 5274 5267 5259 5250 5243 5235 5229 5223 5217 5212 5206 5201 5197 5193 5190 5188 5186
5347 5346 5345 5344 5342 5340 5339 5337 5335 5334 5332 5329 5326 5324 5320 5315 5310 5306 5301 5296 5290 5283 5277 5270 5262 5253 5245 5237 5229 5222 5215 5208 5202 5197 5192 5187 5183 5179 5175 5172 5171 5170 5169
Wind_Speed
55 52 51 51 48 47 47 49 46 44 45 45 46 47 48 49 49 49 49 49 50 51 51 52 52 52 53 54 55 56 58 60 63 65 67 70 70 72 76 77 77 78 80
56 56 54 54 52 48 50 52 54 54 53 53 53 52 51 50 51 51 50 51 52 52 52 52 53 54 54 55 57 58 60 62 66 69 70 72 72 76 79 77 77 79 80
59 61 59 55 51 46 48 50 54 57 59 56 54 52 51 50 50 51 52 53 53 54 53 53 53 53 54 56 59 61 62 65 68 70 72 74 77 77 75 75 76 77 79
63 58 55 53 54 51 49 52 55 54 56 55 52 51 51 51 52 52 53 54 54 54 53 53 54 55 57 60 61 63 66 68 70 72 74 75 80 78 77 74 74 76 75
61 58 55 54 55 55 53 53 54 54 53 53 52 52 52 53 53 54 54 54 53 53 54 54 56 60 60 61 62 65 68 73 74 76 76 76 76 82 86 74 72 72 72
61 58 55 55 55 54 54 54 54 55 56 55 54 54 55 55 56 56 55 54 53 53 53 55 60 61 63 64 66 68 70 73 74 73 78 75 73 76 80 72 72 71 66
58 58 56 55 54 54 53 50 49 50 51 54 54 53 53 53 53 52 51 52 53 54 58 60 61 63 64 69 69 72 71 73 74 76 81 83 80 76 78 72 68 64 68
58 57 57 56 56 54 52 48 46 47 48 50 52 53 51 50 51 53 55 57 59 60 62 64 65 67 68 68 69 70 74 76 81 75 77 83 80 74 71 66 62 67 74
62 60 59 58 57 57 55 52 49 49 50 51 52 54 55 58 60 59 58 61 64 65 66 67 68 67 67 68 70 72 71 75 78 78 77 72 69 66 63 63 68 73 75
69 68 66 64 61 60 60 60 60 59 58 57 57 57 57 59 60 61 62 64 66 66 66 66 66 66 66 68 70 72 76 77 75 73 68 61 61 60 65 69 73 74 75
73 75 73 70 67 66 65 65 64 64 62 60 58 59 61 63 65 65 65 65 65 65 65 66 68 71 72 73 75 77 74 74 70 62 59 56 59 64 68 72 74 74 74
75 72 71 70 69 66 66 65 64 62 59 57 57 57 60 59 59 61 62 64 65 66 67 69 70 73 76 75 71 68 66 65 61 55 56 59 62 67 68 69 69 71 73
64 63 62 60 59 59 59 58 58 59 55 58 59 57 54 58 63 58 61 64 66 67 65 68 73 73 68 63 60 57 56 54 54 57 61 63 66 67 66 67 70 73 76
61 60 60 59 58 55 56 59 59 52 53 54 55 61 63 62 63 64 63 63 62 63 69 71 65 62 58 54 51 51 53 55 56 60 63 63 62 64 68 72 75 77 79
61 51 54 54 56 57 55 58 61 59 62 62 62 63 64 64 64 61 62 63 63 64 65 63 62 60 57 56 56 53 54 58 58 57 59 61 64 69 71 73 76 78 80
54 56 56 58 58 63 65 67 68 65 61 58 58 63 66 62 62 64 63 68 67 66 65 57 55 54 54 55 54 56 51 53 57 59 61 65 69 72 73 74 77 80 82
55 58 59 56 54 55 55 55 59 59 58 59 58 60 61 62 61 60 64 68 65 59 58 59 59 57 55 53 52 53 54 57 60 62 64 67 69 71 76 79 81 83 83
69 69 70 68 59 60 60 62 58 56 56 55 56 56 61 64 62 63 62 61 61 62 57 53 49 51 53 53 55 57 58 60 62 64 67 69 73 77 79 82 83 83 80
73 79 74 65 65 66 66 67 59 53 54 56 58 60 61 63 65 63 56 54 54 54 54 54 54 54 57 58 60 60 61 63 65 68 72 75 78 81 82 83 82 79 77
69 71 64 66 63 60 58 54 53 56 58 60 59 54 54 53 51 51 52 54 56 57 55 55 55 56 56 57 59 61 64 68 71 74 77 79 81 82 82 81 80 78 75
54 53 53 53 52 52 54 55 58 61 55 49 47 46 48 52 54 54 58 57 56 54 54 54 54 55 57 59 63 66 69 72 75 77 80 82 83 85 83 80 78 75 71
48 53 54 52 53 54 56 53 48 45 44 47 49 51 53 55 56 54 54 54 53 54 54 56 58 61 65 68 71 73 75 77 80 84 86 87 87 83 80 77 73 70 68
45 47 47 43 42 42 42 44 46 49 52 53 55 56 54 51 50 51 52 52 53 55 58 61 65 69 73 76 78 79 82 86 88 89 89 87 82 78 74 70 68 65 62
37 34 35 37 39 44 50 55 57 58 52 49 49 50 51 51 51 51 53 55 58 62 66 70 73 76 79 81 84 88 91 93 93 91 86 80 77 75 71 67 64 61 58
37 40 45 48 48 48 49 51 49 48 47 47 48 49 51 52 55 57 61 64 68 71 74 77 80 82 86 89 93 95 96 92 87 82 80 77 74 70 67 62 58 55 52
39 39 41 41 42 42 43 43 44 46 47 49 51 54 57 60 63 66 70 73 76 78 80 84 88 92 96 98 96 91 86 83 81 78 74 70 67 64 61 57 52 49 47
Wind_Direction
282 285 288 293 296 292 281 278 278 277 278 278 279 279 281 281 280 279 278 277 279 279 279 280 280 281 283 283 283 284 286 287 289 290 291 293 296 297 296 297 299 300 300
281 285 289 295 292 289 283 279 279 277 278 278 280 280 280 278 276 276 276 277 277 276 276 278 279 281 281 282 283 284 286 287 289 291 294 295 298 297 296 299 300 299 300
282 286 287 288 286 286 281 278 276 276 276 278 279 280 278 276 275 276 277 277 277 277 277 277 277 279 281 282 282 284 285 288 289 291 293 295 297 295 296 297 297 300 300
283 284 286 286 282 276 272 272 275 276 276 277 278 279 279 277 276 277 277 278 279 278 279 280 282 282 282 283 285 287 288 288 289 291 294 297 296 292 294 296 300 299 301
283 282 283 279 278 277 275 272 274 275 276 277 277 277 277 278 279 278 277 280 280 281 282 284 285 284 285 286 288 289 289 290 292 292 293 294 296 294 291 296 301 302 304
283 282 281 280 279 279 279 279 278 277 277 277 277 278 279 280 280 280 281 281 281 282 284 286 284 286 288 289 290 289 289 291 292 293 293 293 297 298 293 300 303 304 305
279 280 280 279 281 282 282 282 282 282 281 280 279 279 279 279 279 279 280 280 280 281 282 283 284 284 286 287 288 288 289 290 293 292 291 288 290 296 292 299 303 305 309
280 279 279 280 281 281 280 280 279 277 276 278 279 279 279 279 279 278 279 278 281 282 282 283 284 285 287 284 287 289 289 285 284 291 293 288 288 293 296 300 303 308 311
278 276 276 278 280 281 281 280 278 277 276 276 277 277 277 278 279 282 284 283 282 282 283 283 284 284 283 285 287 286 288 284 282 284 288 290 292 294 296 300 305 308 307
274 274 275 275 275 276 277 278 278 278 278 277 278 278 278 277 279 280 281 279 278 279 281 283 283 283 281 281 282 278 277 278 281 285 291 291 293 293 297 302 305 303 300
271 271 271 273 273 273 274 275 276 278 280 280 280 279 279 279 279 278 278 277 278 279 280 280 279 279 280 278 275 274 277 281 284 285 288 290 293 296 300 302 302 301 304
277 273 268 266 268 271 274 277 278 279 279 280 281 282 282 283 282 281 280 280 279 278 279 280 280 279 277 278 277 278 282 282 284 285 290 291 296 298 299 299 300 305 310
271 270 271 268 268 270 271 272 274 276 276 281 288 287 289 291 289 288 282 280 279 280 281 279 276 277 278 277 277 278 277 280 286 288 291 292 296 297 298 303 306 309 311
279 278 275 272 271 270 273 276 275 271 274 279 280 284 287 284 281 279 281 281 280 278 275 277 277 276 275 273 274 277 281 283 284 287 291 294 297 303 306 306 307 309 310
273 272 277 277 279 273 271 272 275 271 273 281 282 281 280 277 275 275 277 274 272 273 273 272 273 273 272 272 277 279 279 284 290 295 297 301 303 302 303 305 307 308 309
276 283 284 283 279 279 278 274 273 273 280 281 279 277 279 281 277 275 279 277 271 269 269 268 269 270 271 272 278 284 290 294 296 298 299 300 301 302 303 305 306 307 308
282 283 284 280 280 280 278 275 277 279 278 276 275 276 278 279 284 287 280 275 271 265 264 266 268 273 279 284 288 291 293 295 296 298 299 299 300 302 304 305 306 306 307
280 286 284 285 283 285 282 275 276 278 277 282 279 283 284 279 272 264 260 261 265 269 275 281 286 287 289 291 291 292 294 294 296 297 298 298 300 303 303 303 303 304 306
284 287 283 282 281 282 280 278 280 283 284 280 278 277 278 282 281 278 276 277 280 283 285 287 288 288 289 291 292 293 294 295 296 296 298 299 300 300 301 301 302 303 304
285 280 275 270 272 276 278 275 274 275 275 277 281 281 279 275 275 279 282 285 286 286 287 288 288 289 290 291 293 293 294 295 296 296 297 298 299 300 300 300 301 301 301
270 269 270 272 273 268 266 267 268 270 272 270 268 273 279 281 283 283 285 284 284 285 287 288 289 290 292 294 295 294 293 293 294 295 297 298 300 300 299 298 297 296 296
269 268 264 261 263 265 268 270 268 266 271 274 278 280 284 284 283 283 284 284 285 286 288 289 290 293 293 293 294 294 293 294 296 297 299 300 300 299 297 296 295 295 294
264 263 262 264 264 266 268 270 273 276 277 281 289 290 286 282 282 282 284 286 289 290 290 290 291 292 293 294 295 294 294 296 297 298 299 299 297 296 295 293 292 291 291
263 265 269 269 271 274 277 282 285 288 287 284 282 280 280 281 283 284 285 287 289 291 292 294 294 294 294 295 295 295 296 297 297 298 298 296 295 294 292 291 289 289 288
271 273 274 275 278 282 284 284 283 282 281 281 282 283 284 285 285 287 289 291 293 294 294 295 295 295 295 295 296 296 297 297 296 295 294 293 292 291 290 289 287 287 286
280 280 279 279 279 278 278 278 279 281 284 286 286 287 288 289 290 291 292 293 294 295 295 295 296 296 297 298 297 297 296 295 294 293 293 292 290 289 288 286 284 283 283